Location: New Canada
(47.1017°N, 68.5042°W)
Time: 03:01:54
(UTC+00:00)

COSMOS 1818 DEB - Pass Details

Date: 04 December 2023
Orbit: 754 x 785 km, 65.0° (Epoch: 12 November)

Event Time Altitude Azimuth Distance (km) Brightness Sun altitude
Rises 21:15:33 0° 258° (WSW) 3,254 ? -5.3°
Reaches altitude 10° 21:18:22 10° 271° (W) 2,333 ? -5.7°
Maximum altitude 21:22:45 25° 326° (NW) 1,544 ? -6.4°
Drops below altitude 10° 21:27:11 10° 21° (NNE) 2,350 ? -7.0°
Enters shadow 21:29:01 - 31° (NNE) 2,939 ? -7.3°
